Weather reports worldwide

Advertisment
Shap, United Kingdom (3225): temperature & dewpoint: 18.06.2018 14:00:00 - 24.06.2018 14:00:00 (BST)Shap, United Kingdom (3225): temperature -20cm & temperature -100cm: 18.06.2018 14:00:00 - 24.06.2018 14:00:00 (BST)Shap, United Kingdom (3225): wind speed & gusts: 18.06.2018 14:00:00 - 24.06.2018 14:00:00 (BST)Shap, United Kingdom (3225): wind direction: 18.06.2018 14:00:00 - 24.06.2018 14:00:00 (BST)Shap, United Kingdom (3225): reduced air pressure: 18.06.2018 14:00:00 - 24.06.2018 14:00:00 (BST)Shap, United Kingdom (3225): visibility: 18.06.2018 14:00:00 - 24.06.2018 14:00:00 (BST)Shap, United Kingdom (3225): sunshine duration: 18.06.2018 14:00:00 - 24.06.2018 14:00:00 (BST)Shap, United Kingdom (3225): precipitation: 18.06.2018 14:00:00 - 24.06.2018 14:00:00 (BST)
Date & Time tt [°C] td [°C] tt -20cm [°C] tt -100cm [°C] ff [km/h] ff [kn] fx [km/h] fx [kn] dd ppp [hPa] vv [km] sd [min] rr [mm]
24.06.2018 14:00:00 20,5 7,3 - - 13 7 - - N 1025,1 50 60 0,0
24.06.2018 13:00:00 19,6 6,0 - - 13 7 - - N 1025,3 50 60 0,0
24.06.2018 12:00:00 18,2 6,2 - - 9 5 - - N 1025,7 50 60 0,0
24.06.2018 11:00:00 17,2 6,7 - - 9 5 - - NNE 1025,9 50 60 0,0
24.06.2018 10:00:00 16,5 7,3 15,0 13,2 4 2 - - N 1026,1 50 60 0,0
24.06.2018 09:00:00 14,8 8,0 - - 4 2 - - E 1026,4 45 60 0,0
24.06.2018 08:00:00 13,0 8,2 - - 4 2 - - ENE 1026,5 45 60 0,0
24.06.2018 07:00:00 10,1 8,7 - - 8 4 - - SE 1026,7 40 54 0,0
24.06.2018 06:00:00 5,6 5,4 - - 2 1 - - S 1027,2 35 18 0,0
24.06.2018 05:00:00 3,0 2,4 - - 2 1 - - NNE 1027,4 29 0 0,0
24.06.2018 04:00:00 3,3 2,7 - - 2 1 - - S 1027,4 30 0 0,0
24.06.2018 03:00:00 3,5 2,6 - - 0 0 - - N 1027,6 30 0 0,0
24.06.2018 02:00:00 4,8 3,9 - - 4 2 - - SW 1027,7 27 0 0,0
24.06.2018 01:00:00 5,5 4,4 - - 2 1 - - W 1027,9 27 - 0,0
24.06.2018 00:00:00 6,9 5,7 - - 5 3 - - SW 1028,0 30 0 0,0
23.06.2018 23:00:00 7,0 4,7 - - 5 3 - - NNW 1028,1 27 0 0,0
23.06.2018 22:00:00 9,2 6,2 - - 5 3 - - NNW 1027,7 30 0 0,0
23.06.2018 21:00:00 11,7 8,0 - - 4 2 - - ENE 1027,0 35 0 0,0
23.06.2018 20:00:00 13,8 8,3 - - 9 5 - - NNW 1026,5 40 12 0,0
23.06.2018 19:00:00 15,3 8,3 - - 13 7 - - N 1026,3 45 6 0,0
23.06.2018 18:00:00 15,2 8,8 - - 15 8 - - N 1026,6 50 6 0,0
23.06.2018 17:00:00 15,3 8,1 - - 15 8 - - N 1026,8 45 6 0,0
23.06.2018 16:00:00 15,8 8,3 - - 15 8 - - N 1027,1 50 0 0,0
23.06.2018 15:00:00 15,7 8,2 - - 16 9 - - N 1027,3 50 6 0,0
23.06.2018 14:00:00 15,3 6,5 - - 16 9 - - N 1027,9 50 0 0,0
23.06.2018 13:00:00 14,6 5,5 - - 15 8 - - N 1028,4 50 6 0,0
23.06.2018 12:00:00 14,0 6,3 - - 11 6 - - N 1028,6 50 0 0,0
23.06.2018 11:00:00 13,5 7,1 - - 8 4 - - N 1028,9 45 12 0,0
23.06.2018 10:00:00 12,3 6,5 15,0 13,0 11 6 - - N 1029,0 45 18 0,0
23.06.2018 09:00:00 11,1 6,1 - - 5 3 - - N 1029,3 40 12 0,0
23.06.2018 08:00:00 10,7 8,0 - - 8 4 - - N 1029,4 35 6 0,0
23.06.2018 07:00:00 8,6 7,5 - - 2 1 - - WSW 1029,5 35 6 0,0
23.06.2018 06:00:00 4,3 3,6 - - 0 0 - - N 1030,1 35 0 0,0
23.06.2018 05:00:00 4,3 3,3 - - 2 1 - - E 1030,2 35 0 0,0
23.06.2018 04:00:00 3,6 2,3 - - 4 2 - - WSW 1030,5 25 0 0,0
23.06.2018 03:00:00 4,8 3,9 - - 2 1 - - W 1030,7 23 0 0,0
23.06.2018 02:00:00 6,3 5,2 - - 2 1 - - SW 1030,8 26 0 0,0
23.06.2018 01:00:00 7,8 6,7 - - 8 4 - - W 1030,7 27 - 0,0
23.06.2018 00:00:00 8,2 6,1 - - 2 1 - - WNW 1030,8 29 0 0,0
22.06.2018 23:00:00 11,3 7,7 - - 9 5 - - W 1030,4 35 0 0,0
22.06.2018 22:00:00 11,7 7,6 - - 5 3 - - WSW 1030,1 35 6 0,0
22.06.2018 21:00:00 14,8 7,0 - - 5 3 - - WNW 1029,7 50 60 0,0
22.06.2018 20:00:00 16,3 6,5 - - 9 5 - - NW 1029,6 50 60 0,0
22.06.2018 19:00:00 16,7 6,5 - - 13 7 - - NW 1029,8 45 60 0,0
22.06.2018 18:00:00 17,6 4,4 - - 13 7 - - NW 1029,7 45 60 0,0
22.06.2018 17:00:00 17,3 0,1 - - 13 7 - - NW 1030,0 50 60 0,0
22.06.2018 16:00:00 17,4 0,3 - - 16 9 - - NNW 1030,1 50 60 0,0
22.06.2018 15:00:00 18,2 5,0 - - 15 8 - - NNW 1030,1 50 60 0,0
22.06.2018 14:00:00 18,0 4,8 - - 13 7 - - NNW 1030,5 50 60 0,0
22.06.2018 13:00:00 16,7 3,4 - - 9 5 - - N 1031,0 50 60 0,0
22.06.2018 12:00:00 15,1 4,5 - - 5 3 - - N 1031,4 50 60 0,0
22.06.2018 11:00:00 13,9 5,1 - - 8 4 - - NNE 1031,9 45 60 0,0
22.06.2018 10:00:00 13,0 4,4 14,7 13,0 8 4 - - N 1032,1 50 60 0,0
22.06.2018 09:00:00 11,4 4,9 - - 9 5 - - NNW 1032,1 45 60 0,0
22.06.2018 08:00:00 10,2 6,8 - - 4 2 - - NNE 1031,9 30 60 0,0
22.06.2018 07:00:00 8,5 7,0 - - 2 1 - - NNE 1031,9 28 60 0,0
22.06.2018 06:00:00 3,7 3,2 - - 2 1 - - W 1032,4 1,0 30 0,0
22.06.2018 05:00:00 3,1 2,2 - - 4 2 - - E 1032,0 27 0 0,0
22.06.2018 04:00:00 5,7 4,2 - - 11 6 - - NW 1031,6 30 0 0,0
22.06.2018 03:00:00 6,3 4,6 - - 5 3 - - W 1031,7 28 0 0,0
22.06.2018 02:00:00 6,4 3,8 - - 5 3 - - N 1031,6 27 0 0,0
22.06.2018 01:00:00 8,4 4,7 - - 11 6 - - NW 1031,1 30 - 0,0
22.06.2018 00:00:00 9,0 5,2 - - 15 8 - - NNW 1030,8 30 0 0,0
21.06.2018 23:00:00 9,6 5,5 - - 13 7 - - NW 1030,6 35 0 0,0
21.06.2018 22:00:00 10,2 5,5 - - 9 5 - - NW 1030,1 35 6 0,0
21.06.2018 21:00:00 12,1 5,9 - - 9 5 - - WNW 1029,6 20 60 0,0
21.06.2018 20:00:00 13,9 6,1 - - 16 9 - - NW 1029,0 50 30 0,0
21.06.2018 19:00:00 15,1 5,8 - - 16 9 - - NW 1028,3 50 30 0,0
21.06.2018 18:00:00 14,5 4,9 - - 15 8 - - NW 1027,9 50 48 0,0
21.06.2018 17:00:00 14,7 5,5 - - 16 9 - - NW 1027,8 50 42 0,0
21.06.2018 16:00:00 14,2 4,4 - - 16 9 - - NW 1027,5 50 18 0,0
21.06.2018 15:00:00 14,0 5,5 - - 16 9 - - NW 1027,1 50 24 0,0
21.06.2018 14:00:00 13,4 3,6 - - 21 11 - - NW 1027,0 50 36 0,0
21.06.2018 13:00:00 12,8 4,6 - - 21 11 - - NW 1026,8 50 30 0,0
21.06.2018 12:00:00 12,3 5,2 - - 18 10 - - NNW 1026,5 50 18 0,0
21.06.2018 11:00:00 11,7 4,9 - - 18 10 - - NNW 1026,1 50 24 0,0
21.06.2018 10:00:00 11,0 4,5 15,0 13,0 21 11 - - N 1025,6 50 36 0,0
21.06.2018 09:00:00 10,5 4,4 - - 21 11 - - NNW 1025,2 50 60 0,0
21.06.2018 08:00:00 9,1 4,5 - - 24 13 - - NNW 1024,4 50 60 0,0
21.06.2018 07:00:00 8,2 4,0 - - 24 13 - - NW 1024,0 50 60 0,0
21.06.2018 06:00:00 7,3 3,5 - - 22 12 - - NNW 1023,0 50 18 0,0
21.06.2018 05:00:00 7,3 3,2 - - 24 13 - - NW 1022,2 50 0 0,0
21.06.2018 04:00:00 7,7 4,2 - - 21 11 48 26 WNW 1021,6 40 0 0,0
21.06.2018 03:00:00 7,9 4,5 - - 16 9 - - NW 1021,3 23 0 0,0
21.06.2018 02:00:00 7,6 4,8 - - 22 12 - - W 1021,1 9 0 0,2
21.06.2018 01:00:00 8,2 4,1 - - 21 11 - - WNW 1020,7 35 - 0,4
21.06.2018 00:00:00 8,2 6,1 - - 13 7 - - NW 1021,1 5 0 0,4
20.06.2018 23:00:00 9,6 4,7 - - 11 6 - - WNW 1020,8 13 0 0,0
20.06.2018 22:00:00 9,8 3,6 - - 16 9 - - WNW 1020,7 35 0 0,0
20.06.2018 21:00:00 10,4 3,9 - - 16 9 - - WNW 1020,0 35 6 0,0
20.06.2018 20:00:00 11,3 3,4 - - 11 6 - - WNW 1019,7 35 12 0,0
20.06.2018 19:00:00 12,2 5,4 - - 21 11 - - WNW 1019,3 35 0 0,0
20.06.2018 18:00:00 13,5 6,6 - - 11 6 - - WNW 1018,8 35 12 0,0
20.06.2018 17:00:00 14,2 6,6 - - 15 8 - - NW 1018,3 40 54 0,0
20.06.2018 16:00:00 15,2 8,5 - - 18 10 - - WNW 1018,0 40 24 0,0
20.06.2018 15:00:00 14,8 7,7 - - 16 9 - - WNW 1017,4 45 24 0,0
20.06.2018 14:00:00 13,8 9,3 - - 22 12 - - NNW 1017,2 40 30 0,0
20.06.2018 13:00:00 15,0 11,2 - - 18 10 - - NW 1016,0 35 36 0,0
20.06.2018 12:00:00 15,4 10,4 - - 13 7 - - WNW 1014,9 40 12 0,0
20.06.2018 11:00:00 15,9 13,7 - - 24 13 - - WSW 1013,7 50 24 0,0
20.06.2018 10:00:00 - - 15,0 13,0 26 14 - - SW - 21 0 0,2
20.06.2018 09:00:00 14,7 13,3 - - 15 8 55 30 WSW 1013,3 7 0 0,4
20.06.2018 08:00:00 14,5 13,3 - - 37 20 67 36 SW 1012,4 8 0 1,2
20.06.2018 07:00:00 14,2 13,6 - - 41 22 67 36 SW 1012,3 1,9 0 1,6
20.06.2018 06:00:00 14,7 13,6 - - 39 21 67 36 SW 1012,3 3,0 0 3,2
20.06.2018 05:00:00 14,5 14,0 - - 42 23 67 36 SW 1012,5 5 0 0,4
20.06.2018 04:00:00 14,4 13,9 - - 46 25 72 39 SW 1013,0 4,1 0 0,0
20.06.2018 03:00:00 15,2 14,2 - - 34 18 65 35 SW 1013,6 17 0 0,4
20.06.2018 02:00:00 15,0 13,9 - - 41 22 67 36 SSW 1014,4 25 0 0,0
20.06.2018 01:00:00 15,2 13,8 - - 35 19 61 33 SSW 1015,3 26 - 0,0
20.06.2018 00:00:00 15,3 13,6 - - 39 21 52 28 SW 1015,7 29 0 0,0
19.06.2018 23:00:00 15,2 13,8 - - 35 19 50 27 SW 1016,2 26 0 0,0
19.06.2018 22:00:00 14,6 13,8 - - 29 16 54 29 SSW 1016,4 23 0 0,0
19.06.2018 21:00:00 14,2 13,4 - - 31 17 46 25 SSW 1016,2 7 0 1,0
19.06.2018 20:00:00 12,7 11,7 - - 29 16 - - SSW 1016,7 2,5 0 1,4
19.06.2018 19:00:00 12,5 11,5 - - 24 13 - - SSW 1017,4 5 0 0,4
19.06.2018 18:00:00 12,2 11,3 - - 13 7 - - SSW 1018,4 5 0 0,0
19.06.2018 17:00:00 12,2 10,5 - - 16 9 - - S 1019,3 5 0 0,0
19.06.2018 16:00:00 13,0 8,8 - - 15 8 - - SW 1019,5 30 0 0,0
19.06.2018 15:00:00 13,7 7,9 - - 18 10 - - SW 1020,0 30 0 0,0
19.06.2018 14:00:00 14,1 7,6 - - 18 10 - - SW 1019,6 30 0 0,0
19.06.2018 13:00:00 13,5 6,5 - - 21 11 - - SW 1020,3 35 0 0,0
19.06.2018 12:00:00 12,7 6,9 - - 15 8 - - SW 1020,6 30 0 0,0
19.06.2018 11:00:00 13,4 7,5 - - 22 12 - - SW 1020,6 35 6 0,0
19.06.2018 10:00:00 12,0 6,5 15,0 13,0 13 7 - - WSW 1020,8 30 24 0,0
19.06.2018 09:00:00 11,9 6,3 - - 15 8 - - SW 1020,9 30 36 0,0
19.06.2018 08:00:00 - - - - 15 8 - - SW - 30 60 0,0
19.06.2018 07:00:00 10,2 3,7 - - 8 4 - - WSW 1020,2 40 54 0,0
19.06.2018 06:00:00 8,7 3,8 - - 9 5 - - W 1019,9 40 18 0,0
19.06.2018 05:00:00 8,5 5,9 - - 13 7 - - W 1019,3 27 0 0,0
19.06.2018 04:00:00 9,0 6,6 - - 8 4 - - WSW 1018,6 29 0 0,0
19.06.2018 03:00:00 8,9 5,8 - - 5 3 - - W 1018,5 30 0 0,0
19.06.2018 02:00:00 9,9 5,9 - - 8 4 - - W 1017,6 30 0 0,0
19.06.2018 01:00:00 11,5 6,7 - - 18 10 - - W 1016,8 35 - 0,0
19.06.2018 00:00:00 12,4 8,0 - - 16 9 - - W 1016,3 45 0 0,0
18.06.2018 23:00:00 13,5 10,2 - - 11 6 - - W 1015,7 5 0 0,0
18.06.2018 22:00:00 13,6 11,5 - - 11 6 - - W 1015,2 45 0 0,0
18.06.2018 21:00:00 13,4 12,3 - - 16 9 - - SW 1014,5 5 0 0,2
18.06.2018 20:00:00 13,3 12,1 - - 21 11 - - SW 1014,4 5 0 0,2
18.06.2018 19:00:00 13,1 11,6 - - 21 11 - - SW 1014,5 4,1 0 0,0
18.06.2018 18:00:00 12,9 10,9 - - 21 11 52 28 SW 1014,7 20 0 0,0
18.06.2018 17:00:00 14,4 10,3 - - 29 16 46 25 SW 1014,6 27 18 0,0
18.06.2018 16:00:00 13,7 9,1 - - 24 13 50 27 SW 1015,0 24 24 0,0
18.06.2018 15:00:00 13,9 8,4 - - 31 17 50 27 SW 1015,1 30 54 0,0
18.06.2018 14:00:00 14,3 8,1 - - 26 14 50 27 WSW 1015,0 30 54 0,0

tt = temperature
td = dewpoint
tt -20cm = temperature -20cm
tt -100cm = temperature -100cm
ff = wind speed
fx = gusts
dd = wind direction
ppp = reduced air pressure
vv = visibility
sd = sunshine duration
rr = precipitation

Next stations